Powrót do katalogu

STARLINK-35697

AktywnyŁącznośćVLEO
NORAD 66539·PAYLOAD·🇺🇸 United States

Wystrzelony Nov 19, 2025 z Cape Canaveral Space Force Station

Loading…

Następne Przeloty (najbliższe 24 godziny)

TLE

ŚwieżeSource: CelesTrak SupGP

Epoka: Sep 15, 2026, 02:45 UTC

1 66539C 25265Z   26258.11506944  .00013424  00000+0  48620-3 0  2586
2 66539  42.9998 288.0464 0001369 262.2732 141.5312 15.27572789    18

Śledź STARLINK-35697 w czasie rzeczywistym z AllMySat

Download on the App Store